This demonstration page uses our WeatherBlox Daily Observations layout. Learn more.

Left ArrowRight Arrow

40.92945, -100.16068

Hourly Observations for September 16, 2016

Temp ( °F °C ) Dew Point ( °F °C ) Humidity (%) Winds ( mph kmh ) Pressure ( in mb ) Visibility ( mi km ) Precip ( " mm )
12:15 am 00:15 Clear 60 15.5 58 14.2 92 92 Calm 29.94 1014 10 16 N/A
12:35 am 00:35 Clear 60 15.5 58 14.2 92 92 NW 3 6 29.94 1014 10 16 N/A
12:55 am 00:55 Clear 59 15.2 57 14.1 93 93 N 5 7 29.94 1014 10 16 0.00 0.00
1:15 am 01:15 Clear 59 15 57 14 94 94 WSW 3 6 29.97 1015 10 16 N/A
1:35 am 01:35 Clear 58 14.6 56 13.6 94 94 WSW 3 6 29.97 1015 10 16 N/A
1:55 am 01:55 Clear 57 14 55 13 94 94 Calm 29.97 1015 10 16 N/A
2:15 am 02:15 Clear 57 13.8 55 12.9 94 94 SSW 3 6 29.97 1015 10 16 N/A
2:35 am 02:35 Clear 56 13.5 55 12.6 94 94 Calm 29.97 1015 7 11 N/A
2:55 am 02:55 Clear 55 12.8 54 12 95 95 WNW 8 13 30.00 1016 7 11 N/A
3:15 am 03:15 Clear 56 13.3 55 12.5 95 95 NW 6 9 29.97 1015 7 11 N/A
3:35 am 03:35 Clear with Mist and Fog 56 13.2 54 12.4 95 95 WNW 5 7 29.97 1015 5 8 N/A
3:55 am 03:55 Clear with Mist and Fog 55 12.5 53 11.7 95 95 Calm 30.00 1016 5 8 N/A
4:15 am 04:15 Clear 54 12.2 53 11.5 96 96 Calm 30.00 1016 7 11 N/A
4:35 am 04:35 Clear 54 12.2 53 11.4 95 95 Calm 30.03 1017 10 16 N/A
4:55 am 04:55 Clear 54 12.2 53 11.5 96 96 W 3 6 30.00 1016 7 11 N/A
5:15 am 05:15 Clear 53 11.5 51 10.7 95 95 W 5 7 30.03 1017 10 16 N/A
5:35 am 05:35 Clear 52 11.1 51 10.3 95 95 WNW 3 6 30.00 1016 10 16 N/A
5:55 am 05:55 Clear 51 10.8 50 9.8 94 94 WNW 7 11 30.00 1016 10 16 N/A
6:15 am 06:15 Clear 51 10.8 50 10 95 95 WNW 3 6 30.00 1016 10 16 N/A
6:35 am 06:35 Clear 51 10.5 49 9.5 94 94 NW 8 13 30.03 1017 10 16 N/A
6:55 am 06:55 Clear 51 10.5 49 9.5 94 94 WNW 3 6 30.03 1017 10 16 0.00 0.00
7:15 am 07:15 Clear 51 10.5 49 9.2 92 92 W 3 6 30.03 1017 10 16 N/A
7:35 am 07:35 Sunny 50 10.1 48 9 93 93 WSW 3 6 30.06 1018 10 16 N/A
7:55 am 07:55 Sunny 51 10.8 49 9.7 93 93 W 6 9 30.03 1017 10 16 N/A
8:15 am 08:15 Sunny 53 11.4 50 10 91 91 WNW 8 13 30.03 1017 10 16 N/A
8:35 am 08:35 Sunny 54 12 51 10.5 91 91 W 6 9 30.03 1017 10 16 N/A
8:55 am 08:55 Sunny 55 12.8 51 10.3 85 85 WNW 8 13 30.03 1017 10 16 N/A
9:15 am 09:15 Sunny 56 13.5 51 10.6 83 83 WNW 10 17 30.00 1016 10 16 N/A
9:35 am 09:35 Sunny 58 14.4 51 10.7 79 79 WNW 12 19 30.00 1016 10 16 N/A
9:55 am 09:55 Sunny 59 15.1 52 11.3 78 78 NW 15 24 30.00 1016 10 16 N/A
10:15 am 10:15 Sunny 60 15.7 53 11.8 78 78 NW 12 19 30.00 1016 10 16 N/A
10:35 am 10:35 Sunny 62 16.8 54 12.4 75 75 NW 10 17 29.97 1015 10 16 N/A
10:55 am 10:55 Sunny 64 17.8 55 12.6 72 72 WNW 13 20 29.97 1015 10 16 N/A
11:15 am 11:15 Sunny 66 18.8 55 12.6 67 67 WNW 9 15 29.97 1015 10 16 N/A
11:35 am 11:35 Sunny 67 19.7 55 12.8 65 65 WNW 12 19 29.97 1015 10 16 N/A
11:55 am 11:55 Sunny 69 20.5 54 12.4 60 60 NW 9 15 29.94 1014 10 16 N/A
12:15 pm 12:15 Sunny 69 20.6 54 12.2 59 59 NW 14 22 29.94 1014 10 16 N/A
12:35 pm 12:35 Sunny 70 21.2 54 12.1 56 56 WNW 10 17 29.94 1014 10 16 N/A
12:55 pm 12:55 Sunny 72 22 52 11.3 51 51 NW 9 15 29.94 1014 10 16 N/A
1:15 pm 13:15 Sunny 73 22.6 51 10.7 47 47 WNW 12 19 29.94 1014 10 16 N/A
1:35 pm 13:35 Sunny 73 22.9 51 10.5 46 46 WNW 9 15 29.94 1014 10 16 N/A
1:55 pm 13:55 Sunny 74 23.3 50 10 43 43 WNW 10 17 29.94 1014 10 16 N/A
2:15 pm 14:15 Sunny 74 23.6 49 9.7 41 41 NW 12 19 29.88 1012 10 16 N/A
2:35 pm 14:35 Sunny 75 23.9 48 9 39 39 NW 12 19 29.88 1012 10 16 N/A
2:55 pm 14:55 Sunny 75 24.1 48 9 38 38 W 12 19 29.88 1012 10 16 N/A
3:15 pm 15:15 Sunny 76 24.3 47 8.5 37 37 WNW 10 17 29.88 1012 10 16 N/A
3:35 pm 15:35 Sunny 76 24.5 48 8.9 37 37 NW 9 15 29.88 1012 10 16 N/A
3:55 pm 15:55 Sunny 76 24.6 47 8.2 35 35 W 10 17 29.88 1012 10 16 N/A
4:15 pm 16:15 Partly Cloudy 77 24.9 46 8 34 34 NW 8 13 29.88 1012 10 16 N/A
4:35 pm 16:35 Partly Cloudy 76 24.6 46 7.9 35 35 NNW 10 17 29.88 1012 10 16 N/A
4:55 pm 16:55 Sunny 76 24.7 46 7.7 34 34 NW 9 15 29.88 1012 10 16 N/A
5:15 pm 17:15 Sunny 75 24 47 8.2 37 37 NW 10 17 29.88 1012 10 16 N/A
5:35 pm 17:35 Sunny 73 22.8 50 9.8 44 44 NW 8 13 29.91 1013 10 16 N/A
5:55 pm 17:55 Sunny 75 24 47 8.6 38 38 NW 9 15 29.88 1012 10 16 N/A
6:15 pm 18:15 Sunny 74 23.5 48 8.9 39 39 NW 12 19 29.88 1012 10 16 N/A
6:35 pm 18:35 Sunny 73 22.8 49 9.5 43 43 NW 7 11 29.91 1013 10 16 N/A
6:55 pm 18:55 Sunny 72 22.1 50 10.1 47 47 NNW 5 7 29.91 1013 10 16 N/A
7:15 pm 19:15 Sunny 71 21.5 51 10.4 49 49 NW 3 6 29.91 1013 10 16 N/A
7:35 pm 19:35 Sunny 69 20.3 52 11 55 55 Calm 29.91 1013 10 16 N/A
7:55 pm 19:55 Partly Cloudy 68 20.2 50 10.2 53 53 Calm 29.91 1013 10 16 N/A
8:15 pm 20:15 Partly Cloudy 65 18.3 52 11.3 64 64 SW 3 6 29.94 1014 10 16 N/A
8:35 pm 20:35 Mostly Cloudy 64 17.5 53 11.5 68 68 Calm 29.97 1015 10 16 N/A
8:55 pm 20:55 Partly Cloudy 62 16.7 53 11.8 73 73 Calm 30.00 1016 10 16 N/A
9:15 pm 21:15 Clear 61 16.3 54 12 76 76 SW 3 6 30.00 1016 10 16 N/A
9:35 pm 21:35 Clear 60 15.5 53 11.4 77 77 W 5 7 30.00 1016 10 16 N/A
9:55 pm 21:55 Clear 59 14.8 52 10.9 78 78 Calm 30.00 1016 10 16 N/A
10:15 pm 22:15 Clear 57 14 51 10.5 80 80 WNW 3 6 30.00 1016 10 16 N/A
10:35 pm 22:35 Clear 55 13 51 10.5 85 85 N 3 6 30.03 1017 10 16 N/A
10:55 pm 22:55 Clear 54 12.2 50 10 87 87 NNW 5 7 30.03 1017 10 16 N/A
11:15 pm 23:15 Clear 54 12.2 50 10 87 87 NW 5 7 30.03 1017 10 16 N/A
11:35 pm 23:35 Clear 53 11.6 49 9.5 87 87 WNW 6 9 30.03 1017 10 16 N/A
11:55 pm 23:55 Clear 52 11 49 9.2 89 89 WNW 5 7 30.03 1017 10 16 N/A

Powered by AerisWeather